TimeEDT,TemperatureF,Dew PointF,Humidity,Sea Level PressureIn,VisibilityMPH,Wind Direction,Wind SpeedMPH,Gust SpeedMPH,PrecipitationIn,Events,Conditions,WindDirDegrees,DateUTC
12:53 AM,54.0,45.0,72,30.09,10.0,Calm,Calm,-,N/A,,Clear,0,2013-09-15 04:53:00
1:53 AM,50.0,46.0,86,30.11,10.0,Variable,3.5,-,N/A,,Clear,0,2013-09-15 05:53:00
2:53 AM,46.9,45.0,93,30.11,10.0,Calm,Calm,-,N/A,,Clear,0,2013-09-15 06:53:00
3:53 AM,45.0,43.0,93,30.13,10.0,Calm,Calm,-,N/A,,Clear,0,2013-09-15 07:53:00
4:53 AM,44.1,42.1,93,30.14,10.0,Calm,Calm,-,N/A,,Clear,0,2013-09-15 08:53:00
5:53 AM,43.0,41.0,93,30.16,10.0,Calm,Calm,-,N/A,,Clear,0,2013-09-15 09:53:00
6:53 AM,43.0,41.0,93,30.17,10.0,Calm,Calm,-,N/A,,Clear,0,2013-09-15 10:53:00
7:53 AM,50.0,45.0,83,30.17,10.0,Calm,Calm,-,N/A,,Clear,0,2013-09-15 11:53:00
8:53 AM,55.9,45.0,67,30.18,10.0,Calm,Calm,-,N/A,,Clear,0,2013-09-15 12:53:00
9:53 AM,59.0,44.1,58,30.20,10.0,Calm,Calm,-,N/A,,Clear,0,2013-09-15 13:53:00
10:53 AM,61.0,45.0,56,30.19,10.0,Calm,Calm,-,N/A,,Clear,0,2013-09-15 14:53:00
11:53 AM,64.0,45.0,50,30.17,10.0,East,3.5,-,N/A,,Clear,90,2013-09-15 15:53:00
12:53 PM,66.9,46.9,49,30.14,10.0,Variable,4.6,-,N/A,,Clear,0,2013-09-15 16:53:00
1:53 PM,66.9,48.9,52,30.13,10.0,South,6.9,-,N/A,,Clear,180,2013-09-15 17:53:00
2:53 PM,68.0,48.9,50,30.11,10.0,South,6.9,-,N/A,,Clear,170,2013-09-15 18:53:00
3:53 PM,70.0,50.0,49,30.09,10.0,South,8.1,-,N/A,,Clear,190,2013-09-15 19:53:00
4:53 PM,69.1,48.9,49,30.08,10.0,South,3.5,-,N/A,,Clear,180,2013-09-15 20:53:00
5:53 PM,66.0,53.1,63,30.08,10.0,Calm,Calm,-,N/A,,Clear,0,2013-09-15 21:53:00
6:53 PM,62.1,55.9,80,30.08,10.0,Calm,Calm,-,N/A,,Clear,0,2013-09-15 22:53:00
7:53 PM,61.0,55.0,81,30.08,10.0,Calm,Calm,-,N/A,,Clear,0,2013-09-15 23:53:00
8:53 PM,57.9,53.1,84,30.09,10.0,SE,3.5,-,N/A,,Clear,130,2013-09-16 00:53:00
9:53 PM,55.0,53.1,93,30.09,10.0,Calm,Calm,-,N/A,,Clear,0,2013-09-16 01:53:00
10:53 PM,55.9,52.0,87,30.08,10.0,South,3.5,-,N/A,,Clear,180,2013-09-16 02:53:00
11:53 PM,55.9,52.0,87,30.08,10.0,Calm,Calm,-,N/A,,Clear,0,2013-09-16 03:53:00